Change the Weather History Date:

Thursday, May 8, 2014

  Actual Average (KBFD) Record (KBFD)
Temperature  
Mean Temperature 62 °F 51 °F  
Max Temperature 78 °F 63 °F 84 °F (1979)
Min Temperature 46 °F 38 °F 21 °F (1974)
Degree Days  
Heating Degree Days 3 10  
Month to date heating degree days 84  
Since 1 July heating degree days 7335  
Cooling Degree Days 0 0  
Month to date cooling degree days 0  
Year to date cooling degree days 2  
Growing Degree Days 12 (Base 50)    
Moisture  
Dew Point 51 °F    
Average Humidity 72    
Maximum Humidity 100    
Minimum Humidity 42    
Precipitation  
Precipitation 0.00 in 0.12 in 1.60 in (1999)
Month to date precipitation 1.00  
Year to date precipitation 13.56  
Sea Level Pressure  
Sea Level Pressure 30.07 in    
Wind  
Wind Speed 6 mph (South)    
Max Wind Speed 15 mph    
Max Gust Speed -    
Visibility 10 miles    
Events Rain    
T = Trace of Precipitation, MM = Missing Value Source: NWS Daily Summary

Daily Weather History Graph

Daily Weather History Graph

Search for Another Location

Airport or City:

Trip Planner

Search our weather history database for the weather conditions in past years. The results will help you decide how hot, cold, wet, or windy it might be!

Date:

Astronomy

May. 08, 2014 Rise Set
Actual Time 6:00 AM EDT 8:20 PM EDT
Civil Twilight 5:28 AM EDT 8:51 PM EDT
Nautical Twilight 4:50 AM EDT 9:30 PM EDT
Astronomical Twilight 4:07 AM EDT 10:14 PM EDT
Moon 2:12 PM EDT (5/8) 2:37 AM EDT (5/8)
Length of Visible Light 15h 23m
Length of Day
14h 20m
Waxing Gibbous, 64% of the Moon is Illuminated
May 8
Waxing Gibbous
May 14
Full
May 21
Last Quarter
May 28
New
Jun 5
First Quarter

Hourly Weather History & Observations

Time (EDT) Temp. Windchill Dew Point Humidity Pressure Visibility Wind Dir Wind Speed Gust Speed Precip Events Conditions
12:15 AM 50.0 °F - 39.2 °F 66% 30.10 in 10.0 mi South 8.1 mph - N/A Rain Light Rain
12:55 AM 48.2 °F - 39.2 °F 71% 30.09 in 10.0 mi South 10.4 mph - N/A   Overcast
1:15 AM 48.2 °F - 41.0 °F 76% 30.08 in 10.0 mi South 6.9 mph - N/A   Light Drizzle
1:35 AM 48.2 °F - 41.0 °F 76% 30.07 in 10.0 mi SSE 5.8 mph - N/A   Overcast
1:55 AM 48.2 °F - 41.0 °F 76% 30.07 in 10.0 mi South 4.6 mph - N/A   Light Drizzle
2:15 AM 46.4 °F 42.9 °F 42.8 °F 87% 30.07 in 10.0 mi SSW 6.9 mph - N/A Rain Light Rain
2:35 AM 46.4 °F 40.1 °F 42.8 °F 87% 30.08 in 10.0 mi SSW 15.0 mph - N/A Rain Rain
2:55 AM 46.4 °F 41.5 °F 42.8 °F 87% 30.07 in 10.0 mi South 10.4 mph - N/A Rain Light Rain
3:15 AM 46.4 °F 43.5 °F 44.6 °F 93% 30.07 in 10.0 mi SSE 5.8 mph - N/A   Overcast
3:55 AM 46.4 °F 43.5 °F 44.6 °F 93% 30.08 in 10.0 mi South 5.8 mph - N/A Rain Rain
4:15 AM 46.4 °F 42.9 °F 44.6 °F 93% 30.08 in 10.0 mi South 6.9 mph - N/A Rain Rain
4:35 AM 46.4 °F 43.5 °F 44.6 °F 93% 30.08 in 10.0 mi SSW 5.8 mph - N/A   Light Drizzle
4:55 AM 46.4 °F 45.2 °F 44.6 °F 93% 30.09 in 10.0 mi South 3.5 mph - N/A   Overcast
5:15 AM 46.4 °F 43.5 °F 44.6 °F 93% 30.08 in 10.0 mi South 5.8 mph - N/A   Overcast
5:35 AM 46.4 °F 45.2 °F 44.6 °F 93% 30.08 in 10.0 mi SSE 3.5 mph - N/A   Light Drizzle
5:55 AM 46.4 °F 44.3 °F 44.6 °F 93% 30.07 in 7.0 mi South 4.6 mph - N/A Rain Light Rain
6:15 AM 46.4 °F 42.9 °F 44.6 °F 93% 30.07 in 7.0 mi SSW 6.9 mph - N/A   Overcast
6:35 AM 46.4 °F 44.3 °F 44.6 °F 93% 30.08 in 7.0 mi SSW 4.6 mph - N/A   Overcast
6:55 AM 46.4 °F 44.3 °F 44.6 °F 93% 30.08 in 7.0 mi SSW 4.6 mph - N/A   Overcast
7:15 AM 46.4 °F - 46.4 °F 100% 30.09 in 7.0 mi Calm Calm - N/A   Overcast
7:35 AM 46.4 °F 43.5 °F 46.4 °F 100% 30.09 in 7.0 mi SSW 5.8 mph - N/A   Overcast
7:55 AM 48.2 °F - 46.4 °F 93% 30.10 in 7.0 mi SSW 5.8 mph - N/A   Overcast
8:15 AM 48.2 °F - 46.4 °F 93% 30.10 in 5.0 mi SSW 4.6 mph - N/A Rain Light Rain
8:35 AM 48.2 °F - 46.4 °F 93% 30.11 in 7.0 mi SSW 5.8 mph - N/A   Overcast
8:55 AM 50.0 °F - 48.2 °F 94% 30.11 in 7.0 mi SW 4.6 mph - N/A   Overcast
9:15 AM 51.8 °F - 50.0 °F 94% 30.10 in 10.0 mi SW 4.6 mph - N/A   Overcast
9:35 AM 51.8 °F - 50.0 °F 94% 30.10 in 10.0 mi Calm Calm - N/A   Mostly Cloudy
9:55 AM 55.4 °F - 51.8 °F 88% 30.10 in 10.0 mi Calm Calm - N/A   Scattered Clouds
10:15 AM 59.0 °F - 51.8 °F 77% 30.10 in 10.0 mi WSW 3.5 mph - N/A   Clear
10:35 AM 59.0 °F - 51.8 °F 77% 30.10 in 10.0 mi Calm Calm - N/A   Clear
10:55 AM 62.6 °F - 53.6 °F 72% 30.09 in 10.0 mi Calm Calm - N/A   Clear
11:15 AM 62.6 °F - 53.6 °F 72% 30.11 in 10.0 mi SSW 3.5 mph - N/A   Scattered Clouds
11:35 AM 64.4 °F - 53.6 °F 68% 30.11 in 10.0 mi SSW 4.6 mph - N/A   Scattered Clouds
11:55 AM 66.2 °F - 55.4 °F 68% 30.09 in 10.0 mi Calm Calm - N/A   Scattered Clouds
12:15 PM 68.0 °F - 53.6 °F 60% 30.08 in 10.0 mi Calm Calm - N/A   Clear
12:35 PM 69.8 °F - 55.4 °F 60% 30.08 in 10.0 mi Calm Calm - N/A   Clear
12:55 PM 69.8 °F - 55.4 °F 60% 30.08 in 10.0 mi Calm Calm - N/A   Clear
1:15 PM 71.6 °F - 55.4 °F 57% 30.08 in 10.0 mi SW 4.6 mph - N/A   Clear
1:35 PM 71.6 °F - 55.4 °F 57% 30.07 in 10.0 mi Calm Calm - N/A   Clear
1:55 PM 73.4 °F - 55.4 °F 53% 30.06 in 10.0 mi SW 8.1 mph - N/A   Clear
2:15 PM 75.2 °F - 53.6 °F 47% 30.05 in 10.0 mi WNW 6.9 mph - N/A   Clear
2:35 PM 75.2 °F - 55.4 °F 50% 30.04 in 10.0 mi SSW 5.8 mph - N/A   Clear
2:55 PM 77.0 °F - 53.6 °F 44% 30.04 in 10.0 mi West 5.8 mph - N/A   Clear
3:15 PM 77.0 °F - 55.4 °F 47% 30.03 in 10.0 mi Calm Calm - N/A   Scattered Clouds
3:35 PM 77.0 °F - 53.6 °F 44% 30.03 in 10.0 mi West 3.5 mph - N/A   Scattered Clouds
3:55 PM 77.0 °F - 53.6 °F 44% 30.03 in 10.0 mi West 6.9 mph - N/A   Mostly Cloudy
4:15 PM 77.0 °F - 53.6 °F 44% 30.02 in 10.0 mi Calm Calm - N/A   Mostly Cloudy
4:35 PM 78.8 °F - 55.4 °F 44% 30.02 in 10.0 mi SW 4.6 mph - N/A   Mostly Cloudy
4:55 PM 77.0 °F - 53.6 °F 44% 30.02 in 10.0 mi SSW 5.8 mph - N/A   Mostly Cloudy
5:15 PM 78.8 °F - 53.6 °F 42% 30.02 in 10.0 mi SW 4.6 mph - N/A   Overcast
5:35 PM 78.8 °F - 53.6 °F 42% 30.02 in 10.0 mi SW 4.6 mph - N/A   Overcast
5:55 PM 78.8 °F - 53.6 °F 42% 30.02 in 10.0 mi NW 4.6 mph - N/A   Mostly Cloudy
6:15 PM 77.0 °F - 53.6 °F 44% 30.02 in 10.0 mi Calm Calm - N/A   Mostly Cloudy
6:35 PM 73.4 °F - 57.2 °F 57% 30.02 in 10.0 mi NE 5.8 mph - N/A   Overcast
6:55 PM 71.6 °F - 57.2 °F 60% 30.02 in 10.0 mi NE 5.8 mph - N/A   Overcast
7:15 PM 71.6 °F - 57.2 °F 60% 30.03 in 10.0 mi NE 8.1 mph - N/A   Scattered Clouds
7:35 PM 69.8 °F - 57.2 °F 64% 30.04 in 10.0 mi NE 9.2 mph - N/A   Scattered Clouds
7:55 PM 68.0 °F - 55.4 °F 64% 30.05 in 10.0 mi NE 6.9 mph - N/A   Clear
8:15 PM 68.0 °F - 55.4 °F 64% 30.05 in 10.0 mi ENE 6.9 mph - N/A   Clear
8:35 PM 64.4 °F - 55.4 °F 73% 30.06 in 10.0 mi ENE 5.8 mph - N/A   Scattered Clouds
8:55 PM 64.4 °F - 55.4 °F 73% 30.05 in 10.0 mi ENE 9.2 mph - N/A   Scattered Clouds
9:15 PM 64.4 °F - 55.4 °F 73% 30.07 in 10.0 mi ENE 9.2 mph - N/A   Clear
9:35 PM 64.4 °F - 55.4 °F 73% 30.07 in 10.0 mi East 8.1 mph - N/A   Clear
9:55 PM 62.6 °F - 53.6 °F 72% 30.08 in 10.0 mi East 8.1 mph - N/A   Clear
10:15 PM 62.6 °F - 53.6 °F 72% 30.08 in 10.0 mi East 6.9 mph - N/A   Scattered Clouds
10:35 PM 62.6 °F - 53.6 °F 72% 30.09 in 10.0 mi East 6.9 mph - N/A   Overcast
11:15 PM 62.6 °F - 53.6 °F 72% 30.09 in 10.0 mi East 5.8 mph - N/A   Overcast
11:35 PM 62.6 °F - 53.6 °F 72% 30.10 in 10.0 mi Calm Calm - N/A   Overcast
11:55 PM 62.6 °F - 53.6 °F 72% 30.08 in 10.0 mi SE 5.8 mph - N/A   Mostly Cloudy